Weather History for Bonilla Island, BC

Change the Weather History Date:

Wednesday, November 28, 2012

  Actual Average Record
Temperature  
Mean Temperature 45 °F -  
Max Temperature 53 °F - - ()
Min Temperature 37 °F - - ()
Degree Days  
Heating Degree Days 20    
Moisture  
Dew Point 41 °F    
Average Humidity 79    
Maximum Humidity 92    
Minimum Humidity 50    
Precipitation  
Precipitation 0.24 in - - ()
Sea Level Pressure  
Sea Level Pressure 29.45 in    
Wind  
Wind Speed 9 mph ()    
Max Wind Speed 14 mph    
Max Gust Speed 29 mph    
T = Trace of Precipitation, MM = Missing Value Source: Averaged Metar Reports

Daily Weather History Graph

Daily Weather History Graph

Search for Another Location

Airport:

Trip Planner

Search our weather history database for the weather conditions in past years. The results will help you decide how hot, cold, wet, or windy it might be!

Date:

Astronomy

Nov. 28, 2012 Rise Set
Actual Time 8:31 AM PST 4:29 PM PST
Civil Twilight 7:50 AM PST 5:10 PM PST
Nautical Twilight 7:06 AM PST 5:54 PM PST
Astronomical Twilight 6:24 AM PST 6:36 PM PST
Moon 4:48 PM PST (11/28) 8:35 AM PST (11/28)
Length of Visible Light 9h 19m
Length of Day
7h 57m
Full, 100% of the Moon is Illuminated
Nov 28
Full
Dec 6
Last Quarter
Dec 13
New
Dec 19
First Quarter
Dec 28
Full

Hourly Weather History & Observations

Time (PST) Temp. Windchill Dew Point Humidity Pressure Visibility Wind Dir Wind Speed Gust Speed Precip Events Conditions
12:00 AM 49.8 °F - 31.6 °F 50% 29.69 in - SE 12.7 mph 20.7 mph N/A   Unknown
1:00 AM 49.1 °F - 32.9 °F 54% 29.68 in - SE 10.4 mph 19.6 mph N/A   Unknown
2:00 AM 43.9 °F 37.9 °F 38.7 °F 82% 29.66 in - SE 11.5 mph 23.0 mph 0.04 in   Unknown
3:00 AM 44.6 °F 39.7 °F 40.8 °F 87% 29.64 in - East 9.2 mph 18.4 mph 0.03 in   Unknown
4:00 AM 46 °F - 40 °F 74% 29.62 in - ESE 11.5 mph - -  
4:00 AM 45.9 °F 40.4 °F 40.5 °F 81% 29.62 in - ESE 11.5 mph 24.2 mph N/A   Unknown
5:00 AM 46.6 °F - 41.4 °F 82% 29.59 in - ESE 13.8 mph 28.8 mph N/A   Unknown
6:00 AM 48.2 °F - 41.5 °F 78% 29.58 in - SE 10.4 mph 21.9 mph N/A   Unknown
7:00 AM 48.2 °F - 42.1 °F 79% 29.55 in - SE 12.7 mph 21.9 mph N/A   Unknown
8:00 AM 49.5 °F - 41.7 °F 75% 29.53 in - SE 12.7 mph 23.0 mph N/A   Unknown
9:00 AM 50.7 °F - 42.6 °F 74% 29.51 in - East 10.4 mph 23.0 mph N/A   Unknown
10:00 AM 51 °F - 42 °F 62% 29.49 in - East 6.9 mph - -  
10:00 AM 50.7 °F - 41.9 °F 72% 29.49 in - East 6.9 mph - N/A   Unknown
11:00 AM 51.4 °F - 41.5 °F 69% 29.47 in - East 8.1 mph 21.9 mph N/A   Unknown
12:00 PM 52.2 °F - 40.8 °F 65% 29.45 in - East 8.1 mph - N/A   Unknown
1:00 PM 50.4 °F - 41.2 °F 71% 29.42 in - East 5.8 mph - N/A   Unknown
2:00 PM 48.9 °F - 41.9 °F 77% 29.38 in - East 6.9 mph - 0.02 in   Unknown
3:00 PM 47.8 °F - 42.8 °F 83% 29.36 in - East 5.8 mph - 0.03 in   Unknown
4:00 PM 46 °F - 43 °F 84% 29.34 in - East 6.9 mph - -  
4:00 PM 46.2 °F 42.7 °F 42.8 °F 88% 29.34 in - East 6.9 mph - 0.05 in   Unknown
5:00 PM 46.0 °F 41.9 °F 43.5 °F 91% 29.32 in - East 8.1 mph 17.3 mph 0.09 in   Unknown
6:00 PM 45.1 °F 40.8 °F 42.4 °F 90% 29.32 in - East 8.1 mph - 0.04 in   Unknown
7:00 PM 44.6 °F 39.7 °F 42.4 °F 92% 29.31 in - East 9.2 mph - 0.05 in   Unknown
8:00 PM 44.4 °F 40.0 °F 42.3 °F 92% 29.29 in - East 8.1 mph - 0.02 in   Unknown
9:00 PM 45.1 °F 39.9 °F 42.3 °F 90% 29.27 in - East 10.4 mph 23.0 mph N/A   Unknown
10:00 PM 45 °F - 42 °F 85% 29.26 in - East 9.2 mph - -  
10:00 PM 44.6 °F 39.7 °F 41.9 °F 90% 29.26 in - East 9.2 mph 18.4 mph 0.03 in   Unknown
11:00 PM 44.2 °F 39.2 °F 41.7 °F 91% 29.24 in - East 9.2 mph 19.6 mph 0.02 in   Unknown